Regional Weather Roundup
Issued by NWS

Home | Current Version | Previous Version | Text Only | Print | Product List | Glossary Off
Versions: 1 2 3 4 5 6 7 8 9 10 11 12 13 14 15 16 17 18 19 20 21 22 23 24 25 26 27 28 29 30 31 32 33 34 35 36 37 38 39 40 41 42 43 44 45 46 47 48 49 50

000
ASUS43 KOAX 020002
RWRNE

WEATHER ROUNDUP FOR NEBRASKA
NATIONAL WEATHER SERVICE OMAHA NE
700 PM CDT SAT AUG 01 2015

NOTES: SATELLITE DATA IS BEING USED TO AUGMENT CLOUD COVER ABOVE
       12000 FEET.
       "FAIR" INDICATES FEW OR NO CLOUDS BELOW 12,000 FEET WITH NO
       SIGNIFICANT WEATHER AND/OR OBSTRUCTIONS TO VISIBILITY.

  * THESE STATIONS DO NOT REPORT WEATHER SUCH AS RAIN...SNOW OR FOG.

NEZ001>004-019>022-054>056-020100-
NEBRASKA PANHANDLE

CITY           SKY/WX    TMP DP  RH WIND       PRES   REMARKS
SCOTTSBLUFF    PTSUNNY   85  60  42 E17       29.98R
6HR MIN TEMP:  83; 6HR MAX TEMP:  96; 6HR PCP: TRACE;

ALLIANCE       MOSUNNY   83  58  42 S14       29.98F
6HR MIN TEMP:  72; 6HR MAX TEMP:  94; 6HR PCP:  0.02;

CHADRON        SUNNY     92  60  34 S10       29.92S HX  91
6HR MIN TEMP:  88; 6HR MAX TEMP:  95;

KIMBALL        MOSUNNY   88  46  23 S9        30.02F
SIDNEY         PTSUNNY   76  59  55 NE24      30.05R
6HR MIN TEMP:  76; 6HR MAX TEMP:  96;

$$

NEZ057>060-069>072-079>082-020100-
SOUTHWEST NEBRASKA

CITY           SKY/WX    TMP DP  RH WIND       PRES   REMARKS
NORTH PLATTE   MOSUNNY   78  61  55 SE14      29.97F
6HR MIN TEMP:  78; 6HR MAX TEMP:  85;

IMPERIAL       SUNNY     89  49  25 SE17      29.98S
6HR MIN TEMP:  86; 6HR MAX TEMP:  96;

LEXINGTON      MOSUNNY   83  62  50 E7        29.98F
MCCOOK         SUNNY     92  55  28 S12       29.95F HX  90
6HR MIN TEMP:  85; 6HR MAX TEMP:  95;

$$

NEZ005>010-023>029-035>040-094-020100-
NORTH CENTRAL NEBRASKA

CITY           SKY/WX    TMP DP  RH WIND       PRES   REMARKS
VALENTINE      SUNNY     83  57  41 S15       29.95F
6HR MIN TEMP:  64; 6HR MAX TEMP:  85; 6HR PCP:  0.02;

AINSWORTH      SUNNY     82  57  42 SW15      29.96S
BROKEN BOW     PTSUNNY   80  58  46 S8        29.95F
6HR MIN TEMP:  76; 6HR MAX TEMP:  82;

ORD            MOSUNNY   80  58  46 S7        29.92F
6HR MIN TEMP:  71; 6HR MAX TEMP:  83;

$$

NEZ041-046>049-061>064-073>077-083>087-020100-
SOUTH CENTRAL NEBRASKA

CITY           SKY/WX    TMP DP  RH WIND       PRES   REMARKS
GRAND ISLAND   MOSUNNY   79  64  60 S7        29.94F
6HR MIN TEMP:  78; 6HR MAX TEMP:  89;

AURORA         MOSUNNY   80  66  63 S5        29.93F
HASTINGS       SUNNY     83  65  54 S9        29.94F
6HR MIN TEMP:  81; 6HR MAX TEMP:  86;

KEARNEY *      MOSUNNY   81  63  54 S8        29.95F
$$

NEZ011>018-030>034-042>045-020100-
NORTHEAST NEBRASKA

CITY           SKY/WX    TMP DP  RH WIND       PRES   REMARKS
NORFOLK        SUNNY     82  65  56 S9        29.91F
6HR MIN TEMP:  73; 6HR MAX TEMP:  89; 6HR PCP: TRACE;

BLAIR          MOSUNNY   82  69  65 CALM      29.91F
COLUMBUS *     SUNNY     82  64  54 SW6       29.91F
TEKAMAH        SUNNY     82  71  69 S8        29.89F
6HR MIN TEMP:  79; 6HR MAX TEMP:  82;

$$

NEZ050>053-065>068-078-088>093-020100-
SOUTHEAST NEBRASKA

CITY           SKY/WX    TMP DP  RH WIND       PRES   REMARKS
LINCOLN        SUNNY     86  61  42 S8        29.91F
6HR MIN TEMP:  79; 6HR MAX TEMP:  89;

OMAHA EPPLEY   MOSUNNY   84  68  58 S12       29.90F
6HR MIN TEMP:  81; 6HR MAX TEMP:  85;

BEATRICE       SUNNY     85  71  62 CALM      29.91F HX  90
FALLS CITY     SUNNY     87  76  69 E3        29.92F HX  97
6HR MIN TEMP:  81; 6HR MAX TEMP:  88;

NEBRASKA CITY  MOSUNNY   84  65  52 S3        29.92F
$$

NEZ044-045-051>053-067-020100-
OMAHA AREA

CITY           SKY/WX    TMP DP  RH WIND       PRES   REMARKS
OMAHA EPPLEY   MOSUNNY   84  68  58 S12       29.90F
6HR MIN TEMP:  81; 6HR MAX TEMP:  85;

BLAIR          MOSUNNY   82  69  65 CALM      29.91F
WAHOO          FAIR      83  66  56 S6        29.91F
$$



USA.gov is the U.S. government's official web portal to all federal, state and local government web resources and services.